Tracking 17260 objects as of 27-August-2015
HD Live streaming from Space Station

SL-19 R/B

Track SL-19 R/B now!
10-day predictions
SL-19 R/B is classified as:


NORAD ID: 36589
Int'l Code: 2010-023B
Perigee: 882.0 km
Apogee: 1,215.7 km
Inclination: 100.5 °
Period: 106.0 minutes
Semi major axis: 7419 km
RCS: 6.505 m2 (large)
Launch date: June 2, 2010
Source: Commonwealth of Independent States (former USSR) (CIS)

Note: This is a ROCKET BODY
Your satellite tracking list
Your tracking list is empty





NASA's NSSDC Master Catalog

Two Line Element Set (TLE):
1 36589U 10023B   15238.97261367 -.00000023 +00000-0 +34945-4 0  9992
2 36589 100.5472 225.2898 0224845 256.9473 162.1050 13.58347060259715

Source of the keplerian elements: AFSPC

N2YO: 282